{"data":{"norad_id":57810,"intl_designator":"2023-138C","name":"STARLINK-30394","alt_names":[],"object_type":"PAYLOAD","status":"ACTIVE","operator":null,"country":"US","launch_date":"2023-09-09","launch_site_code":"AFETR","launch_vehicle":null,"mission":null,"orbit_class":"UNKNOWN","rcs_meters":null,"size_class":null,"mass_kg":null,"dimensions":null,"purposes":["comms"],"wikipedia_slug":null,"has_3d_model":false,"image_url":null,"decayed_at":null,"tle_current":{"epoch":"2026-09-20T21:30:18.613728Z","epoch_age_seconds":97511,"freshness":"FRESH","line1":"1 57810U 23138C   26263.89604877  .00010058  00000+0  37432-3 0  9991","line2":"2 57810  42.9978 211.6734 0000057 130.6659 229.4198 15.27596767168496","mean_motion":15.27596767,"eccentricity":5.7e-6,"inclination_deg":42.9978,"raan_deg":211.6734,"arg_perigee_deg":130.6659,"mean_anomaly_deg":229.4198,"bstar":0.00037432,"rev_number":16849,"period_min":94.265714035777,"perigee_km":482.95978159441,"apogee_km":483.03799854355,"semimajor_km":6861.135890069,"source":"CELESTRAK","updated_at":"2026-09-21T09:00:33.706937Z"}}}